Satellite: ISS
Catalog number: 25544
Epoch time:      09044.74794314
Element set:     264
Inclination:      051.6395 deg
RA of node:       219.0537 deg
Eccentricity:    0.0008769
Arg of perigee:   023.1642 deg
Mean anomaly:     069.7754 deg
Mean motion:   15.70873159 rev/day
Decay rate:      4.057e-05 rev/day^2
Epoch rev:           58653
Checksum:              327

Satellite: CO-58
Catalog number: 28895
Epoch time:      09043.92846322
Element set:    0231
Inclination:      098.0779 deg
RA of node:       297.9183 deg
Eccentricity:    0.0018597
Arg of perigee:   020.2794 deg
Mean anomaly:     339.9189 deg
Mean motion:   14.59741369 rev/day
Decay rate:       1.93e-06 rev/day^2
Epoch rev:           17560
Checksum:              369

Satellite: FALCON
Catalog number: 30776
Epoch time:      09044.62745621
Element set:     503
Inclination:      035.4331 deg
RA of node:       129.0252 deg
Eccentricity:    0.0002003
Arg of perigee:   313.3391 deg
Mean anomaly:     046.7158 deg
Mean motion:   15.03167042 rev/day
Decay rate:       2.93e-06 rev/day^2
Epoch rev:           10649
Checksum:              252

Satellite: MAST
Catalog number: 31126
Epoch time:      09043.70798677
Element set:    0528
Inclination:      098.0062 deg
RA of node:       104.1141 deg
Eccentricity:    0.0093922
Arg of perigee:   306.7175 deg
Mean anomaly:     052.5409 deg
Mean motion:   14.53477113 rev/day
Decay rate:        5.5e-07 rev/day^2
Epoch rev:           09695
Checksum:              296

Satellite: CAPE1
Catalog number: 31130
Epoch time:      09044.72597971
Element set:     527
Inclination:      098.0079 deg
RA of node:       103.5473 deg
Eccentricity:    0.0101789
Arg of perigee:   308.1402 deg
Mean anomaly:     051.0649 deg
Mean motion:   14.52032956 rev/day
Decay rate:        4.4e-07 rev/day^2
Epoch rev:            9677
Checksum:              296

Satellite: COMPASS
Catalog number: 32787
Epoch time:      09043.42921830
Element set:    0283
Inclination:      097.9601 deg
RA of node:       108.2259 deg
Eccentricity:    0.0017166
Arg of perigee:   078.4500 deg
Mean anomaly:     281.8626 deg
Mean motion:   14.81547273 rev/day
Decay rate:       3.51e-06 rev/day^2
Epoch rev:           04297
Checksum:              304

Satellite: AAUSAT2
Catalog number: 32788
Epoch time:      09043.88002785
Element set:     279
Inclination:      097.9592 deg
RA of node:       108.7109 deg
Eccentricity:    0.0016756
Arg of perigee:   079.0987 deg
Mean anomaly:     281.2074 deg
Mean motion:   14.81665386 rev/day
Decay rate:       2.30e-06 rev/day^2
Epoch rev:            4304
Checksum:              331

Satellite: DO-64
Catalog number: 32789
Epoch time:      09043.76375243
Element set:    0301
Inclination:      097.9631 deg
RA of node:       108.6871 deg
Eccentricity:    0.0016741
Arg of perigee:   077.8322 deg
Mean anomaly:     282.4765 deg
Mean motion:   14.81613045 rev/day
Decay rate:       3.96e-06 rev/day^2
Epoch rev:           04302
Checksum:              314

Satellite: CO-66
Catalog number: 32791
Epoch time:      09044.74150877
Element set:     272
Inclination:      097.9613 deg
RA of node:       109.5564 deg
Eccentricity:    0.0017177
Arg of perigee:   072.7064 deg
Mean anomaly:     287.6026 deg
Mean motion:   14.81386976 rev/day
Decay rate:       2.08e-06 rev/day^2
Epoch rev:            4313
Checksum:              330

Satellite: RS-30
Catalog number: 32953
Epoch time:      09043.83321312
Element set:    0231
Inclination:      082.5067 deg
RA of node:       333.9452 deg
Eccentricity:    0.0020215
Arg of perigee:   088.4948 deg
Mean anomaly:     271.8443 deg
Mean motion:   12.42999826 rev/day
Decay rate:        1.0e-07 rev/day^2
Epoch rev:           03294
Checksum:              289

/EX



_______________________________________________
Via the Keps mailing list courtesy of AMSAT-NA
http://amsat.org/mailman/listinfo/keps

--- ViaMAIL!/WC v1.60d
 * Origin: Chowdanet (401-724-4410) telnet://chowdanet.com  (1:323/120)